Simultaneous Nadir Overpasses (SNOs) Predictions

Prediction of SNOs between GOES-17 and METOP-B Satellite Orbit:

Table of predicted SNOs for the next 14.0 days since TLE Epoch: 9/28/2024
Index Date Time (GOES-17) GOES-17 Lat,Lon METOP-B Lat,Lon Distance(km) Time Diff (sec)
1 09/28/2024 16:18:32 -0.00,-104.73 0.12,-105.36 71.43 80
2 09/29/2024 16:00:31 -0.01,-104.73 -0.96,-100.36 497.81 80
3 10/01/2024 04:19:29 0.01,-104.68 -0.04,-104.97 32.35 80
4 10/03/2024 16:17:37 -0.01,-104.74 -0.07,-104.54 23.81 80
5 10/06/2024 04:13:13 0.02,-104.69 0.13,-104.14 63.29 80
6 10/07/2024 16:32:02 -0.01,-104.75 0.84,-108.71 450.48 80
7 10/08/2024 16:13:59 -0.01,-104.75 -0.22,-103.70 119.02 80
8 10/10/2024 04:32:57 0.01,-104.70 -0.80,-108.30 410.95 80
9 10/11/2024 04:09:35 0.00,-104.69 0.32,-103.31 158.15 80
